Weather History for Pontiac, MI

Change the Weather History Date:

Tuesday, January 29, 2013

  Actual Average Record
Temperature  
Mean Temperature 53 °F -  
Max Temperature 69 °F 29 °F 69 °F (2013)
Min Temperature 37 °F 15 °F -4 °F (2014)
Degree Days  
Heating Degree Days 12    
Growing Degree Days 3 (Base 50)    
Moisture  
Dew Point 43 °F    
Average Humidity 81    
Maximum Humidity 100    
Minimum Humidity 50    
Precipitation  
Precipitation 0.96 in - - ()
Snow  
Snow 0.00 in - - ()
Snow Depth 1.00 in    
Sea Level Pressure  
Sea Level Pressure 29.77 in    
Wind  
Wind Speed 6 mph (SSE)    
Max Wind Speed 17 mph    
Max Gust Speed 25 mph    
Visibility 3 miles    
Events Fog , Rain , Thunderstorm    
Averages and records for this station are not official NWS values.
T = Trace of Precipitation, MM = Missing Value Source: NWS Daily Summary

Daily Weather History Graph

Daily Weather History Graph

Search for Another Location

Airport:

Trip Planner

Search our weather history database for the weather conditions in past years. The results will help you decide how hot, cold, wet, or windy it might be!

Date:

Astronomy

Jan. 29, 2013 Rise Set
Actual Time 7:50 AM EST 5:43 PM EST
Civil Twilight 7:20 AM EST 6:13 PM EST
Nautical Twilight 6:46 AM EST 6:47 PM EST
Astronomical Twilight 6:13 AM EST 7:20 PM EST
Moon 8:44 PM EST (1/29) 8:42 AM EST (1/29)
Length of Visible Light 10h 53m
Length of Day
9h 52m
Waning Gibbous, 94% of the Moon is Illuminated
Jan 29
Waning Gibbous
Feb 3
Last Quarter
Feb 10
New
Feb 17
First Quarter
Feb 25
Full

Hourly Weather History & Observations

Time (EST) Temp. Windchill Dew Point Humidity Pressure Visibility Wind Dir Wind Speed Gust Speed Precip Events Conditions
12:43 AM 41.0 °F - 32.0 °F 70% 29.99 in 9.0 mi Calm Calm - N/A   Scattered Clouds
12:53 AM 41.0 °F - 32.0 °F 70% 30.00 in 9.0 mi Calm Calm - N/A   Clear
1:36 AM 37.4 °F 34.9 °F 30.2 °F 75% 29.96 in 4.0 mi NE 3.5 mph - N/A   Haze
1:53 AM 46.0 °F 43.9 °F 32.0 °F 58% 29.97 in 7.0 mi SSE 4.6 mph - N/A   Overcast
2:53 AM 50.0 °F - 33.1 °F 52% 29.96 in 4.0 mi ESE 4.6 mph - N/A   Haze
3:40 AM 51.8 °F - 33.8 °F 50% 29.94 in 4.0 mi SE 6.9 mph - N/A   Haze
3:53 AM 50.0 °F - 33.1 °F 52% 29.94 in 2.0 mi SE 6.9 mph - N/A   Haze
4:02 AM 50.0 °F - 33.8 °F 54% 29.93 in 1.2 mi SE 6.9 mph - N/A   Haze
4:18 AM 48.2 °F - 33.8 °F 58% 29.92 in 0.8 mi SE 6.9 mph - N/A   Haze
4:53 AM 48.0 °F - 34.0 °F 58% 29.91 in 0.5 mi SE 10.4 mph - 0.00 in Rain Light Rain
5:32 AM 46.4 °F 43.5 °F 35.6 °F 66% 29.88 in 1.0 mi ESE 5.8 mph - 0.02 in Rain Light Rain
5:53 AM 50.0 °F - 35.1 °F 57% 29.86 in 2.0 mi SE 9.2 mph - 0.05 in Rain Rain
6:06 AM 50.0 °F - 33.8 °F 54% 29.87 in 1.8 mi SE 8.1 mph - 0.12 in Rain Heavy Rain
6:18 AM 48.2 °F - 33.8 °F 58% 29.85 in 3.0 mi SE 9.2 mph - 0.12 in Rain Light Rain
6:27 AM 46.4 °F 41.5 °F 33.8 °F 62% 29.84 in 1.8 mi SE 10.4 mph - 0.12 in Rain Light Rain
6:53 AM 39.9 °F 33.9 °F 33.1 °F 77% 29.84 in 1.8 mi SE 9.2 mph - 0.12 in   Haze
7:53 AM 37.0 °F - 32.0 °F 82% 29.85 in 1.8 mi Calm Calm - 0.08 in Rain Rain
8:10 AM 37.4 °F 32.1 °F 33.8 °F 87% 29.82 in 1.8 mi SE 6.9 mph - 0.14 in Rain , Thunderstorm Heavy Thunderstorms and Rain
8:25 AM 37.4 °F - 33.8 °F 87% 29.82 in 5.0 mi Calm Calm - 0.16 in Rain Light Rain
8:53 AM 37.0 °F 34.5 °F 33.1 °F 86% 29.83 in 1.5 mi East 3.5 mph - 0.18 in Rain Light Rain
9:18 AM 39.2 °F 34.2 °F 37.4 °F 93% 29.81 in 0.5 mi SSE 6.9 mph - 0.00 in Fog Fog
9:34 AM 39.2 °F 34.2 °F 37.4 °F 93% 29.80 in 0.2 mi SSE 6.9 mph - 0.00 in Fog Fog
9:53 AM 39.0 °F 35.7 °F 37.0 °F 93% 29.81 in 0.2 mi SSE 4.6 mph - 0.00 in Fog Fog
10:53 AM 39.0 °F - 39.0 °F 100% 29.80 in 0.1 mi Calm Calm - 0.00 in Fog , Rain Light Rain
11:07 AM 39.2 °F - 39.2 °F 100% 29.78 in 0.1 mi Calm Calm - 0.00 in Fog Fog
11:53 AM 43.0 °F 39.5 °F 43.0 °F 100% 29.78 in 0.1 mi South 5.8 mph - 0.00 in Fog Fog
12:17 PM 44.6 °F 40.7 °F 44.6 °F 100% 29.76 in 0.1 mi South 6.9 mph - N/A Fog Fog
12:53 PM 45.0 °F 41.8 °F 45.0 °F 100% 29.74 in 0.1 mi South 5.8 mph - 0.00 in Fog , Rain Light Rain
1:40 PM 48.2 °F - 46.4 °F 93% 29.72 in 0.5 mi SSW 9.2 mph - 0.00 in Fog Fog
1:53 PM 50.0 °F - 48.9 °F 96% 29.73 in 0.5 mi SSW 8.1 mph - 0.00 in Fog , Rain Light Rain
2:53 PM 55.4 °F - 52.0 °F 88% 29.69 in 0.8 mi SSW 11.5 mph - 0.00 in Rain Light Rain
3:38 PM 57.2 °F - 53.6 °F 88% 29.70 in 1.0 mi SW 11.5 mph - 0.00 in   Haze
3:53 PM 57.0 °F - 53.1 °F 87% 29.70 in 1.0 mi SSW 10.4 mph - 0.01 in Rain Light Rain
4:31 PM 53.6 °F - 53.6 °F 100% 29.69 in 2.0 mi South 10.4 mph - 0.13 in Rain Rain
4:48 PM 53.6 °F - 53.6 °F 100% 29.68 in 3.0 mi SSW 13.8 mph 20.7 mph 0.13 in   Overcast
4:49 PM 54.0 °F - 53.1 °F 97% 29.69 in 3.0 mi SSW 13.8 mph 20.7 mph 0.13 in   Overcast
4:50 PM 53.6 °F - 51.8 °F 94% 29.68 in 4.0 mi SSW 13.8 mph 20.7 mph N/A   Overcast
5:03 PM 53.6 °F - 53.6 °F 100% 29.70 in 1.5 mi SSW 11.5 mph 20.7 mph 0.04 in Rain Heavy Rain
5:15 PM 53.6 °F - 53.6 °F 100% 29.69 in 2.0 mi South 13.8 mph 19.6 mph 0.09 in Rain Heavy Rain
5:27 PM 53.6 °F - 53.6 °F 100% 29.68 in 1.2 mi South 12.7 mph 18.4 mph 0.17 in Rain Heavy Rain
5:34 PM 53.6 °F - 53.6 °F 100% 29.68 in 2.0 mi South 10.4 mph 18.4 mph 0.18 in Rain Light Rain
5:53 PM 54.0 °F - 53.1 °F 97% 29.69 in 2.5 mi South 11.5 mph 19.6 mph 0.21 in Rain Light Rain
6:00 PM 53.6 °F - 53.6 °F 100% 29.68 in 4.0 mi South 12.7 mph 19.6 mph 0.00 in Rain Light Rain
6:53 PM 55.0 °F - 53.1 °F 93% 29.68 in 5.0 mi South 10.4 mph 20.7 mph 0.00 in   Overcast
7:03 PM 55.4 °F - 53.6 °F 94% 29.66 in 5.0 mi South 12.7 mph 21.9 mph N/A   Overcast
7:53 PM 64.9 °F - 53.1 °F 65% 29.65 in 4.0 mi South 12.7 mph 21.9 mph 0.03 in Rain Light Rain
8:53 PM 66.0 °F - 53.1 °F 63% 29.61 in 6.0 mi South 12.7 mph 21.9 mph 0.14 in Rain Light Rain
9:01 PM 66.2 °F - 53.6 °F 64% 29.60 in 7.0 mi South 13.8 mph 20.7 mph 0.00 in Rain Light Rain
9:23 PM 66.2 °F - 53.6 °F 64% 29.59 in 7.0 mi South 17.3 mph 25.3 mph 0.00 in   Mostly Cloudy
9:53 PM 66.9 °F - 53.1 °F 61% 29.57 in 8.0 mi South 13.8 mph 23.0 mph 0.00 in   Overcast
10:53 PM 69.1 °F - 53.1 °F 57% 29.52 in 8.0 mi South 12.7 mph - 0.01 in   Overcast
11:53 PM 54.0 °F - 52.0 °F 93% 29.48 in 6.0 mi South 8.1 mph 17.3 mph N/A   Overcast